When you browse on this site, cookies collect data to enhance your experience and personalize the content and advertising you see.
Visit our Privacy Policy to learn more. By continuing to use the site, you agree to this use of cookies and data.
  • In United Kingdom
  • List of Countries
  • For 7 days
  • Water Temperature
  • Satellite Maps
  • Weather Map
  • Weather Widgets
  • user-avatar
    Login

    Hourly Weather Guildford

    Today, 23 April, Tuesday

    Time Temperature Precipitation Wind Pressure Humidity
    00:00 +14°C° 0 mm 2 mps 742 mmHg 72%
    01:00 +13°C° 0 mm 2 mps 741 mmHg 70%
    02:00 +13°C° 0 mm 2 mps 741 mmHg 68%
    03:00 +12°C° 0 mm 3 mps 741 mmHg 66%
    04:00 +12°C° 0 mm 3 mps 740 mmHg 69%
    05:00 +13°C° 0 mm 2 mps 740 mmHg 72%
    06:00 +13°C° 0 mm 2 mps 740 mmHg 77%
    07:00 +15°C° 0 mm 2 mps 740 mmHg 72%
    08:00 +17°C° 0 mm 2 mps 740 mmHg 68%
    09:00 +19°C° 0 mm 2 mps 740 mmHg 63%
    10:00 +20°C° 0 mm 2 mps 740 mmHg 61%
    11:00 +21°C° 0 mm 2 mps 740 mmHg 59%
    12:00 +22°C° 0 mm 3 mps 739 mmHg 56%
    13:00 +22°C° 0 mm 3 mps 739 mmHg 57%
    14:00 +22°C° 0 mm 4 mps 739 mmHg 58%
    15:00 +22°C° 0 mm 4 mps 738 mmHg 60%
    16:00 +20°C° 0 mm 4 mps 738 mmHg 64%
    17:00 +19°C° 0 mm 3 mps 738 mmHg 68%
    18:00 +18°C° 0 mm 3 mps 738 mmHg 72%
    19:00 +16°C° 0 mm 3 mps 738 mmHg 74%
    20:00 +15°C° 0 mm 2 mps 738 mmHg 75%
    21:00 +13°C° 0 mm 2 mps 738 mmHg 77%
    22:00 +13°C° 0 mm 2 mps 737 mmHg 77%
    23:00 +13°C° 0 mm 2 mps 737 mmHg 76%

    Tomorrow, 24 April, Wednesday

    Time Temperature Precipitation Wind Pressure Humidity
    00:00 +13°C° 0 mm 2 mps 737 mmHg 76%
    01:00 +13°C° 0 mm 2 mps 736 mmHg 78%
    02:00 +12°C° 0 mm 2 mps 736 mmHg 80%
    03:00 +12°C° 0 mm 2 mps 735 mmHg 82%
    04:00 +12°C° 0 mm 2 mps 735 mmHg 84%
    05:00 +13°C° 0 mm 2 mps 735 mmHg 86%
    06:00 +13°C° 0 mm 2 mps 735 mmHg 88%
    07:00 +13°C° 0.1 mm 4 mps 735 mmHg 86%
    08:00 +14°C° 0.1 mm 6 mps 735 mmHg 85%
    09:00 +15°C° 0.1 mm 8 mps 735 mmHg 84%
    10:00 +13°C° 0 mm 8 mps 736 mmHg 81%
    11:00 +13°C° 0 mm 8 mps 736 mmHg 78%
    12:00 +12°C° 0 mm 8 mps 737 mmHg 75%
    13:00 +12°C° 0.1 mm 8 mps 737 mmHg 74%
    14:00 +12°C° 0.1 mm 7 mps 738 mmHg 74%
    15:00 +12°C° 0.1 mm 7 mps 738 mmHg 74%
    16:00 +13°C° 0 mm 6 mps 738 mmHg 74%
    17:00 +12°C° 0 mm 5 mps 738 mmHg 74%
    18:00 +12°C° 0 mm 4 mps 739 mmHg 75%
    19:00 +11°C° 0 mm 4 mps 739 mmHg 80%
    20:00 +10°C° 0 mm 4 mps 739 mmHg 85%
    21:00 +8°C° 0 mm 4 mps 740 mmHg 90%
    22:00 +8°C° 0 mm 4 mps 739 mmHg 91%
    23:00 +7°C° 0 mm 4 mps 739 mmHg 91%

    Day after tomorrow, 25 April, Thursday

    Time Temperature Precipitation Wind Pressure Humidity
    00:00 +7°C° 0 mm 4 mps 739 mmHg 91%
    01:00 +8°C° 0.5 mm 5 mps 739 mmHg 91%
    02:00 +8°C° 0.5 mm 6 mps 738 mmHg 91%
    03:00 +9°C° 0.5 mm 6 mps 738 mmHg 91%
    04:00 +8°C° 0.4 mm 6 mps 738 mmHg 91%
    05:00 +8°C° 0.4 mm 5 mps 738 mmHg 91%
    06:00 +8°C° 0.4 mm 4 mps 738 mmHg 92%
    07:00 +9°C° 0.3 mm 5 mps 739 mmHg 87%
    08:00 +9°C° 0.3 mm 6 mps 740 mmHg 82%
    09:00 +10°C° 0.3 mm 7 mps 741 mmHg 77%
    10:00 +11°C° 0.3 mm 7 mps 741 mmHg 75%
    11:00 +11°C° 0.3 mm 7 mps 742 mmHg 72%
    12:00 +12°C° 0.3 mm 7 mps 742 mmHg 69%
    13:00 +12°C° 0.2 mm 7 mps 742 mmHg 68%
    14:00 +12°C° 0.2 mm 7 mps 743 mmHg 66%
    15:00 +13°C° 0.2 mm 6 mps 743 mmHg 65%
    16:00 +12°C° 0.1 mm 5 mps 743 mmHg 69%
    17:00 +11°C° 0.1 mm 4 mps 743 mmHg 73%
    18:00 +10°C° 0.1 mm 3 mps 743 mmHg 77%
    19:00 +9°C° 0.1 mm 3 mps 744 mmHg 81%
    20:00 +8°C° 0.1 mm 3 mps 745 mmHg 84%
    21:00 +8°C° 0.1 mm 3 mps 745 mmHg 87%
    22:00 +6°C° 0.1 mm 4 mps 745 mmHg 88%
    23:00 +6°C° 0.1 mm 4 mps 745 mmHg 88%

    26 April, Friday

    Time Temperature Precipitation Wind Pressure Humidity
    00:00 +6°C° 0.1 mm 4 mps 745 mmHg 89%
    01:00 +6°C° 0 mm 4 mps 745 mmHg 90%
    02:00 +6°C° 0 mm 4 mps 745 mmHg 91%
    03:00 +6°C° 0 mm 4 mps 745 mmHg 91%
    04:00 +6°C° 1.3 mm 4 mps 745 mmHg 92%
    05:00 +6°C° 1.3 mm 4 mps 744 mmHg 93%
    06:00 +7°C° 1.3 mm 4 mps 744 mmHg 94%
    07:00 +7°C° 0.6 mm 4 mps 745 mmHg 92%
    08:00 +9°C° 0.6 mm 3 mps 745 mmHg 89%
    09:00 +10°C° 0.6 mm 3 mps 745 mmHg 87%
    10:00 +11°C° 1.1 mm 3 mps 746 mmHg 84%
    11:00 +12°C° 1.1 mm 4 mps 746 mmHg 80%
    12:00 +13°C° 1.1 mm 4 mps 746 mmHg 77%
    13:00 +13°C° 1.1 mm 5 mps 747 mmHg 76%
    14:00 +13°C° 1.1 mm 6 mps 747 mmHg 75%
    15:00 +14°C° 1.1 mm 6 mps 747 mmHg 75%
    16:00 +13°C° 0.2 mm 6 mps 748 mmHg 75%
    17:00 +13°C° 0.2 mm 5 mps 748 mmHg 76%
    18:00 +12°C° 0.2 mm 4 mps 749 mmHg 77%
    19:00 +10°C° 0 mm 5 mps 749 mmHg 80%
    20:00 +8°C° 0 mm 5 mps 750 mmHg 84%
    21:00 +7°C° 0 mm 6 mps 751 mmHg 87%
    22:00 +6°C° 0 mm 5 mps 751 mmHg 86%
    23:00 +5°C° 0 mm 5 mps 751 mmHg 85%

    27 April, Saturday

    Time Temperature Precipitation Wind Pressure Humidity
    00:00 +5°C° 0 mm 5 mps 752 mmHg 84%
    01:00 +5°C° 0.3 mm 4 mps 751 mmHg 87%
    02:00 +6°C° 0.3 mm 4 mps 750 mmHg 90%
    03:00 +6°C° 0.3 mm 4 mps 750 mmHg 93%
    04:00 +7°C° 1.1 mm 4 mps 750 mmHg 92%
    05:00 +7°C° 1.1 mm 4 mps 749 mmHg 90%
    06:00 +8°C° 1.1 mm 5 mps 749 mmHg 89%
    07:00 +8°C° 0.1 mm 6 mps 750 mmHg 88%
    08:00 +9°C° 0.1 mm 6 mps 750 mmHg 87%
    09:00 +9°C° 0.1 mm 7 mps 751 mmHg 86%
    10:00 +10°C° 0.1 mm 7 mps 752 mmHg 80%
    11:00 +11°C° 0.1 mm 7 mps 753 mmHg 73%
    12:00 +11°C° 0.1 mm 8 mps 754 mmHg 67%
    13:00 +11°C° 0 mm 8 mps 755 mmHg 64%
    14:00 +12°C° 0 mm 8 mps 756 mmHg 62%
    15:00 +12°C° 0 mm 8 mps 757 mmHg 59%
    16:00 +11°C° 0 mm 6 mps 757 mmHg 62%
    17:00 +10°C° 0 mm 5 mps 758 mmHg 66%
    18:00 +11°C° 0 mm 4 mps 759 mmHg 69%
    19:00 +8°C° 0 mm 4 mps 759 mmHg 73%
    20:00 +8°C° 0 mm 3 mps 760 mmHg 76%
    21:00 +5°C° 0 mm 3 mps 761 mmHg 79%
    22:00 +5°C° 0 mm 3 mps 761 mmHg 79%
    23:00 +4°C° 0 mm 3 mps 761 mmHg 80%

    28 April, Sunday

    Time Temperature Precipitation Wind Pressure Humidity
    00:00 +5°C° 0 mm 2 mps 761 mmHg 81%
    01:00 +4°C° 0 mm 2 mps 761 mmHg 83%
    02:00 +4°C° 0 mm 2 mps 761 mmHg 85%
    03:00 +4°C° 0 mm 2 mps 761 mmHg 88%
    04:00 +5°C° 0 mm 2 mps 761 mmHg 87%
    05:00 +5°C° 0 mm 2 mps 761 mmHg 86%
    06:00 +6°C° 0 mm 2 mps 761 mmHg 85%
    07:00 +7°C° 0 mm 3 mps 760 mmHg 84%
    08:00 +8°C° 0 mm 4 mps 760 mmHg 83%
    09:00 +9°C° 0 mm 5 mps 760 mmHg 82%
    10:00 +10°C° 0 mm 5 mps 760 mmHg 82%
    11:00 +10°C° 0 mm 5 mps 760 mmHg 82%
    12:00 +11°C° 0 mm 6 mps 759 mmHg 82%
    13:00 +11°C° 0 mm 6 mps 759 mmHg 83%
    14:00 +11°C° 0 mm 6 mps 758 mmHg 83%
    15:00 +12°C° 0 mm 5 mps 758 mmHg 84%
    16:00 +12°C° 0 mm 5 mps 757 mmHg 84%
    17:00 +12°C° 0 mm 5 mps 757 mmHg 84%
    18:00 +12°C° 0 mm 5 mps 756 mmHg 84%
    19:00 +10°C° 0 mm 5 mps 756 mmHg 86%
    20:00 +9°C° 0 mm 5 mps 756 mmHg 87%
    21:00 +8°C° 0 mm 4 mps 755 mmHg 89%
    22:00 +8°C° 0 mm 4 mps 755 mmHg 89%
    23:00 +8°C° 0 mm 4 mps 754 mmHg 90%
    Show more